Flora, IL

3:15 PM CDT on July 25, 2017 (GMT -0500)
Flora Municipal

Weather History for KFOA - March, 2013

Change the Weather History Date:

Tuesday, March 26, 2013

  Actual Average (KSLO) Record (KSLO)
Temperature  
Mean Temperature 35 °F -  
Max Temperature 40 °F 57 °F 82 °F (1991)
Min Temperature 30 °F 36 °F 18 °F (2014)
Degree Days  
Heating Degree Days 30    
Moisture  
Dew Point 27 °F    
Average Humidity 76    
Maximum Humidity 87    
Minimum Humidity 57    
Precipitation  
Precipitation 0.03 in - - ()
Sea Level Pressure  
Sea Level Pressure 30.26 in    
Wind  
Wind Speed 10 mph (WNW)    
Max Wind Speed 18 mph    
Max Gust Speed 23 mph    
Visibility 10 miles    
Events      
Averages and records for this station are not official NWS values.
T = Trace of Precipitation, MM = Missing Value Source: NWS Daily Summary

Daily Weather History Graph

Daily Weather History Graph

Search for Another Location

Airport or City:

Trip Planner

Search our weather history database for the weather conditions in past years. The results will help you decide how hot, cold, wet, or windy it might be!

Date:

Astronomy

Mar. 26, 2013 Rise Set
Actual Time 6:47 AM CDT 7:11 PM CDT
Civil Twilight 6:20 AM CDT 7:38 PM CDT
Nautical Twilight 5:49 AM CDT 8:09 PM CDT
Astronomical Twilight 5:17 AM CDT 8:41 PM CDT
Moon 6:48 PM CDT (3/26) 6:03 AM CDT (3/26)
Length of Visible Light 13h 17m
Length of Day
12h 24m
Waxing Gibbous, 99% of the Moon is Illuminated
Mar 26
Waxing Gibbous
Mar 27
Full
Apr 2
Last Quarter
Apr 10
New
Apr 18
First Quarter

Hourly Weather History & Observations

Time (CDT) Temp. Windchill Dew Point Humidity Pressure Visibility Wind Dir Wind Speed Gust Speed Precip Events Conditions
12:15 AM 31.5 °F 22.9 °F 27.3 °F 85% 30.14 in 10.0 mi WNW 10.4 mph - N/A   Overcast
12:35 AM 31.6 °F 23.7 °F 27.0 °F 83% 30.15 in 10.0 mi WNW 9.2 mph 16.1 mph N/A   Overcast
12:55 AM 31.6 °F 22.6 °F 27.0 °F 83% 30.15 in 10.0 mi WNW 11.5 mph - N/A   Overcast
1:15 AM 31.5 °F 22.9 °F 26.8 °F 83% 30.15 in 10.0 mi WNW 10.4 mph - N/A   Overcast
1:35 AM 31.3 °F 23.9 °F 27.1 °F 85% 30.15 in 10.0 mi WNW 8.1 mph - N/A   Overcast
1:55 AM 31.3 °F 23.3 °F 27.3 °F 85% 30.16 in 10.0 mi WNW 9.2 mph - N/A   Overcast
2:15 AM 31.5 °F 23.5 °F 27.3 °F 85% 30.15 in 10.0 mi WNW 9.2 mph - N/A   Overcast
2:51 AM 30.2 °F 21.3 °F 26.6 °F 86% 30.15 in 10.0 mi WNW 10.4 mph - N/A   Overcast
3:11 AM 30.2 °F 21.9 °F 26.6 °F 86% 30.15 in 10.0 mi WNW 9.2 mph - N/A   Overcast
3:15 AM 31.1 °F 23.1 °F 27.5 °F 87% 30.15 in 10.0 mi WNW 9.2 mph - N/A   Overcast
3:35 AM 31.1 °F 23.1 °F 27.5 °F 87% 30.15 in 10.0 mi WNW 9.2 mph - N/A   Overcast
3:55 AM 31.1 °F 23.1 °F 27.5 °F 87% 30.16 in 10.0 mi WNW 9.2 mph - N/A   Overcast
4:15 AM 31.1 °F 23.7 °F 27.5 °F 87% 30.16 in 10.0 mi WNW 8.1 mph - N/A   Overcast
4:35 AM 31.1 °F 23.1 °F 27.3 °F 86% 30.16 in 10.0 mi WNW 9.2 mph - N/A   Overcast
4:55 AM 31.1 °F 23.7 °F 27.3 °F 86% 30.17 in 10.0 mi NW 8.1 mph - N/A   Overcast
5:15 AM 31.1 °F 23.1 °F 27.3 °F 86% 30.17 in 10.0 mi WNW 9.2 mph - N/A   Overcast
5:35 AM 31.1 °F 23.1 °F 27.1 °F 85% 30.18 in 10.0 mi WNW 9.2 mph - N/A   Overcast
5:55 AM 31.1 °F 22.4 °F 27.1 °F 85% 30.18 in 10.0 mi WNW 10.4 mph - N/A   Overcast
6:15 AM 31.1 °F 22.4 °F 27.0 °F 85% 30.19 in 10.0 mi WNW 10.4 mph - N/A   Overcast
6:35 AM 31.5 °F 22.3 °F 27.0 °F 83% 30.20 in 10.0 mi WNW 11.5 mph - N/A   Overcast
6:55 AM 31.6 °F 22.6 °F 26.6 °F 82% 30.20 in 10.0 mi WNW 11.5 mph 16.1 mph N/A   Overcast
7:15 AM 31.6 °F 23.1 °F 26.6 °F 82% 30.21 in 10.0 mi WNW 10.4 mph - N/A   Overcast
7:35 AM 31.5 °F 22.9 °F 26.8 °F 83% 30.22 in 10.0 mi WNW 10.4 mph - N/A   Overcast
7:55 AM 31.6 °F 23.7 °F 27.0 °F 83% 30.23 in 10.0 mi WNW 9.2 mph - N/A   Overcast
8:15 AM 32.0 °F 23.6 °F 27.1 °F 82% 30.23 in 10.0 mi WNW 10.4 mph - N/A   Overcast
8:35 AM 32.0 °F 24.2 °F 27.1 °F 82% 30.24 in 10.0 mi NW 9.2 mph - N/A   Overcast
8:55 AM 32.0 °F 24.8 °F 27.5 °F 83% 30.25 in 10.0 mi NW 8.1 mph - N/A   Overcast
9:15 AM 32.2 °F 23.2 °F 27.5 °F 83% 30.25 in 10.0 mi NW 11.5 mph - N/A   Overcast
9:35 AM 32.5 °F 24.8 °F 27.7 °F 82% 30.26 in 10.0 mi NW 9.2 mph - N/A   Overcast
9:55 AM 33.4 °F 25.4 °F 28.2 °F 81% 30.26 in 10.0 mi NW 10.4 mph - N/A   Overcast
10:15 AM 33.8 °F 25.3 °F 28.0 °F 79% 30.27 in 10.0 mi NW 11.5 mph - N/A   Overcast
10:35 AM 34.5 °F 26.2 °F 28.2 °F 78% 30.27 in 10.0 mi NW 11.5 mph - N/A   Overcast
10:55 AM 34.9 °F 27.7 °F 27.9 °F 76% 30.27 in 10.0 mi NW 9.2 mph - N/A   Overcast
11:15 AM 35.4 °F 26.8 °F 28.6 °F 76% 30.28 in 10.0 mi WNW 12.7 mph - N/A   Overcast
11:35 AM 35.8 °F 27.3 °F 28.9 °F 76% 30.29 in 10.0 mi WNW 12.7 mph - N/A   Mostly Cloudy
11:55 AM 36.3 °F 28.0 °F 28.6 °F 74% 30.29 in 10.0 mi WNW 12.7 mph 17.3 mph N/A   Scattered Clouds
12:15 PM 37.2 °F 28.7 °F 29.8 °F 75% 30.29 in 10.0 mi WNW 13.8 mph - N/A   Clear
12:35 PM 37.4 °F 30.3 °F 29.8 °F 74% 30.29 in 10.0 mi NW 10.4 mph 17.3 mph N/A   Clear
12:55 PM 37.8 °F 29.8 °F 28.8 °F 70% 30.29 in 10.0 mi WNW 12.7 mph - N/A   Clear
1:15 PM 38.7 °F 30.5 °F 29.8 °F 71% 30.29 in 10.0 mi WNW 13.8 mph 18.4 mph N/A   Clear
1:35 PM 39.0 °F 31.4 °F 30.0 °F 70% 30.28 in 10.0 mi NW 12.7 mph 17.3 mph N/A   Clear
1:55 PM 39.0 °F 30.6 °F 29.1 °F 68% 30.29 in 10.0 mi WNW 15.0 mph - N/A   Clear
2:15 PM 39.6 °F 32.1 °F 28.8 °F 65% 30.29 in 10.0 mi WNW 12.7 mph 21.9 mph N/A   Clear
2:35 PM 39.6 °F 30.6 °F 27.9 °F 63% 30.28 in 10.0 mi WNW 17.3 mph 21.9 mph N/A   Clear
2:55 PM 39.4 °F 31.1 °F 27.5 °F 62% 30.29 in 10.0 mi WNW 15.0 mph 20.7 mph N/A   Scattered Clouds
3:15 PM 40.1 °F 31.0 °F 26.4 °F 58% 30.29 in 10.0 mi WNW 18.4 mph 23.0 mph N/A   Scattered Clouds
3:35 PM 38.8 °F 32.6 °F 25.9 °F 60% 30.29 in 10.0 mi NW 9.2 mph - N/A   Mostly Cloudy
4:15 PM 38.8 °F 31.6 °F 25.2 °F 58% 30.30 in 10.0 mi WNW 11.5 mph - N/A   Overcast
4:35 PM 38.8 °F 31.2 °F 25.3 °F 58% 30.29 in 10.0 mi West 12.7 mph 20.7 mph N/A   Overcast
4:55 PM 38.8 °F 31.6 °F 24.8 °F 57% 30.29 in 10.0 mi WNW 11.5 mph 17.3 mph N/A   Overcast
5:15 PM 38.7 °F 30.5 °F 24.6 °F 57% 30.29 in 10.0 mi WNW 13.8 mph - N/A   Overcast
5:35 PM 38.1 °F 30.7 °F 24.1 °F 57% 30.29 in 10.0 mi West 11.5 mph 17.3 mph N/A   Overcast
5:55 PM 37.9 °F 30.5 °F 25.2 °F 60% 30.30 in 10.0 mi WNW 11.5 mph 16.1 mph N/A   Overcast
6:15 PM 37.2 °F 29.6 °F 26.2 °F 65% 30.31 in 10.0 mi NW 11.5 mph 18.4 mph N/A   Mostly Cloudy
6:35 PM 37.0 °F 29.3 °F 25.3 °F 63% 30.31 in 10.0 mi NW 11.5 mph - N/A   Scattered Clouds
6:55 PM 36.0 °F 27.5 °F 23.5 °F 61% 30.32 in 10.0 mi NW 12.7 mph - N/A   Clear
7:15 PM 34.9 °F 29.9 °F 24.8 °F 67% 30.32 in 10.0 mi NW 5.8 mph - N/A   Clear
7:35 PM 34.7 °F 27.5 °F 24.8 °F 67% 30.32 in 10.0 mi NW 9.2 mph - N/A   Clear
7:55 PM 34.2 °F 28.2 °F 25.2 °F 70% 30.33 in 10.0 mi WNW 6.9 mph - N/A   Clear
8:15 PM 33.4 °F 28.1 °F 25.7 °F 73% 30.33 in 10.0 mi WNW 5.8 mph - N/A   Clear
8:35 PM 33.4 °F 29.1 °F 25.9 °F 74% 30.33 in 10.0 mi WNW 4.6 mph - N/A   Clear
8:55 PM 32.4 °F 27.9 °F 25.5 °F 76% 30.34 in 10.0 mi WNW 4.6 mph - N/A   Clear
9:15 PM 32.2 °F 27.7 °F 25.5 °F 76% 30.34 in 10.0 mi WNW 4.6 mph - N/A   Clear
9:35 PM 32.2 °F 26.7 °F 25.3 °F 76% 30.35 in 10.0 mi West 5.8 mph - N/A   Clear
9:55 PM 32.0 °F 27.5 °F 25.7 °F 78% 30.34 in 10.0 mi West 4.6 mph - N/A   Clear
10:15 PM 31.8 °F 27.3 °F 24.8 °F 75% 30.34 in 10.0 mi West 4.6 mph - N/A   Clear
10:35 PM 31.8 °F 28.5 °F 25.2 °F 76% 30.34 in 10.0 mi WSW 3.5 mph - N/A   Scattered Clouds
10:55 PM 31.1 °F 26.4 °F 25.7 °F 80% 30.34 in 10.0 mi WSW 4.6 mph - N/A   Scattered Clouds
11:15 PM 31.1 °F 25.4 °F 25.5 °F 80% 30.34 in 10.0 mi WSW 5.8 mph - N/A   Scattered Clouds
11:35 PM 30.9 °F 25.2 °F 25.5 °F 80% 30.34 in 10.0 mi West 5.8 mph - N/A   Scattered Clouds
11:55 PM 31.1 °F 25.4 °F 24.8 °F 77% 30.34 in 10.0 mi West 5.8 mph - N/A   Scattered Clouds